Regional Weather Roundup
Issued by NWS

Home | Current Version | Previous Version | Text Only | Print | Product List | Glossary Off
Versions: 1 2 3 4 5 6 7 8 9 10 11 12 13 14 15 16 17 18 19 20 21 22 23 24 25 26 27 28 29 30 31 32 33 34 35 36 37 38 39 40 41 42 43 44 45 46 47 48 49 50

000
ASUS43 KMKX 241621
RWRWI

WISCONSIN REGIONAL WEATHER ROUNDUP
NATIONAL WEATHER SERVICE MILWAUKEE/SULLIVAN WI
1100 AM CDT FRI OCT 24 2014

NOTE: "FAIR" INDICATES FEW OR NO CLOUDS BELOW 12,000 FEET WITH NO
SIGNIFICANT WEATHER AND/OR OBSTRUCTIONS TO VISIBILITY.

WIZ001-002-006>008-014>016-023>028-241700-
NORTHWEST WISCONSIN

CITY           SKY/WX    TMP DP  RH WIND       PRES   REMARKS
SUPERIOR ARPT  SUNNY     55  49  81 CALM      29.85F
ASHLAND        MOSUNNY   57  47  69 S13       29.88F
HAYWARD        SUNNY     55  46  71 S13       29.90F
SIREN          SUNNY     58  49  71 S9        29.87F
CUMBERLAND     PTSUNNY   52  46  82 SE12      29.90F
RICE LAKE      CLOUDY    51  48  87 SE12      29.93F
CHETEK         CLOUDY    51  49  93 SE8       29.93F
LADYSMITH      CLOUDY    48  48  97 SE8       29.96F FOG
EAU CLAIRE     CLOUDY    52  48  86 SE12      29.94F
MENOMONIE      MOSUNNY   56  51  81 SE9       29.92F
NEW RICHMOND   MOSUNNY   56  52  84 S10       29.89F
OSCEOLA        MOSUNNY   58  54  88 SE10      29.91F
$$

WIZ003>005-009-010-017-018-241700-
NORTH CENTRAL WISCONSIN

CITY           SKY/WX    TMP DP  RH WIND       PRES   REMARKS
MANITOWISH WTR CLOUDY    46  46 100 S7        29.94S
ARBOR VITAE    CLOUDY    47  46  97 S6        29.95S
WOODRUFF       CLOUDY    47  46  97 S6        29.95S
RHINELANDER    CLOUDY    45  45 100 SE6       29.97S FOG
EAGLE RIVER    CLOUDY    45  45 100 SW5       29.95F FOG
LAND O LAKES   CLOUDY    46  46 100 S6        29.95F
PHILLIPS       CLOUDY    46  46  98 S7        29.95F
TOMAHAWK       CLOUDY    45  45  98 CALM      29.98R FOG
MEDFORD        FOG       46  46 100 S6        29.97F VSB 3/4
MERRILL        CLOUDY    45  45 100 S3        29.99R FOG
$$

WIZ029-030-035-036-043>047-241700-
CENTRAL WISCONSIN

CITY           SKY/WX    TMP DP  RH WIND       PRES   REMARKS
WAUSAU         FOG       45  45 100 S6        29.98S VSB 3/4
MOSINEE        FOG       45  45 100 S8        30.00F VSB 1/8
MARSHFIELD     FOG       47  46  97 S5        29.99F VSB 3/4
STEVENS POINT  FOG       45  45 100 S5        30.01S VSB 1
WAUPACA        CLOUDY    50  49  95 CALM      30.02F FOG
WAUTOMA        FOG       48  48 100 S3        30.03R VSB 3/4
WISC RAPIDS    FOG       48  47  96 S5        30.02S VSB 3/4
CAMP DOUGLAS   CLOUDY    50  50 100 S5        30.01R
$$

WIZ011>013-019>022-031-037>040-048>050-241700-
NORTHEAST WISCONSIN

CITY           SKY/WX    TMP DP  RH WIND       PRES   REMARKS
ANTIGO         FOG       46  46 100 S5        29.98F VSB 1
SHAWANO        CLOUDY    49  48  95 SW5       30.01F FOG
OCONTO         CLOUDY    47  47 100 W6        30.01F
STURGEON BAY   CLOUDY    48  45  87 W5        30.00F
GREEN BAY      CLOUDY    49  47  93 W8        30.02F FOG
MANITOWOC      CLOUDY    51  48  89 SW8       30.02F
APPLETON       FOG       48  46  93 S6        30.02S VSB 1/2
CLINTONVILLE   CLOUDY    46  46 100 SW7       30.01F FOG
OSHKOSH        CLOUDY    50  48  93 S8        30.02S
$$

WIZ032>034-041-042-053>061-241700-
SOUTHWEST WISCONSIN

CITY           SKY/WX    TMP DP  RH WIND       PRES   REMARKS
LA CROSSE      CLOUDY    55  52  89 S9        29.98F
SPARTA         CLOUDY    53  50  89 S6        30.00F
VIROQUA        CLOUDY    52  52 100 S8        30.00S
BOSCOBEL       CLOUDY    56  53  90 VRB6      30.02F
PRAIRIE DU CHI CLOUDY    55  53  91 S5        30.01S FOG
PLATTEVILLE    CLOUDY    54  53  97 S9        30.04S VSB 1/4
$$

WIZ056-057-062-063-064-067-068-241700-
SOUTH CENTRAL WISCONSIN

CITY           SKY/WX    TMP DP  RH WIND       PRES   REMARKS
REEDSBURG      CLOUDY    48  48 100 S6        30.02F FOG
BARABOO/DELLS  CLOUDY    49  48  96 SE6       30.02F
LONE ROCK      CLOUDY    54  50  86 SE5       30.03F FOG
MINERAL POINT  FOG       54  52  94 S6        30.04S VSB<1/4
MADISON        CLOUDY    50  49  96 SW6       30.04S FOG
MIDDLETON      CLOUDY    50  50 100 S5        30.05S
WATERTOWN      CLOUDY    50  50 100 S5        30.04S FOG
MONROE         FOG       50  50 100 SW7       30.05S VSB<1/4
JANESVILLE     CLOUDY    52  48  87 SW3       30.05  FOG
$$

WIZ051-052-058>065-066-070>072-241700-
SOUTHEAST WISCONSIN

CITY           SKY/WX    TMP DP  RH WIND       PRES   REMARKS
MILWAUKEE      CLOUDY    51  48  89 W7        30.05F
WAUKESHA       CLOUDY    48  46  93 W5        30.05F FOG
MILWAUKEE/TIMM CLOUDY    50  46  87 W3        30.05F
RACINE         CLOUDY    53  49  86 W6        30.06F
BURLINGTON     CLOUDY    49  49  97 SW5       30.05S
KENOSHA        CLOUDY    51  50  96 SW5       30.05F FOG
FOND DU LAC    CLOUDY    50  47  89 S6        30.03F
SHEBOYGAN      CLOUDY    51  47  86 SW5       30.03F
WEST BEND      CLOUDY    50  45  81 CALM      30.03F
JUNEAU         CLOUDY    48  48  99 S9        30.05R FOG
$$

LSZ147-162-241700-
LAKE SUPERIOR

STATION/POSITION TIME  TEMP    WIND        PRES    WAVE
                       AIR SEA DIR/SP/G            HT/PER
                 (UTC) (F)     (DEG/KT/KT) (MB)    (FT/S)
W MID LAKE BUOY  1550   48 46  200/  8/ 10 1011.7F   1
DEVILS ISLAND    1600   52     210/  3/  5 1011.4F
PORT WING        1540   57     200/  6/ 10 1011.5F
SAXON HARBOR     1500   56     190/ 10/ 13 1011.9S
$$

LMZ867-665-643>646-241700-
LAKE MICHIGAN

STATION/POSITION TIME  TEMP    WIND        PRES    WAVE
                       AIR SEA DIR/SP/G            HT/PER
                 (UTC) (F)     (DEG/KT/KT) (MB)    (FT/S)
CHAMBERS ISLAND  1500   48     190/  4/  8 1016.3R
N MID LAKE BUOY  1550   50 51  230/ 10/ 12 1016.0R   1/ 5
NORTHPORT PIER   1500   50     200/  3/  6 1015.9R
SISTER BAY       1513          250/  9/ 11   N/A
ALGOMA LAKESHORE 1511          270/ 10/ 13   N/A
KEWAUNEE LAKESHO 1600   50     250/  3/  5 1015.4F
SHEBOYGAN LAKESH 1600   50 50  230/  3/  3 1017.4F
PORT WASHINGTON  1500   50     290/  4/  7 1017.9
ATWATER BUOY     1600   50     310/  2/  2 1018.5F
MILWAUKEE LAKESH 1600   51     230/  3/  4   N/A
S MID LAKE BUOY  1550   52 54  250/  8/  8 1017.8F   1
KENOSHA   LAKESH 1600   51     290/  5/  7 1017.6F
$$

TC  - TEMPERATURE IN CELSIUS
VSB - VISIBILITY IN STATUTE MILES
WCI - WIND CHILL INDEX
HX  - HEAT INDEX




USA.gov is the U.S. government's official web portal to all federal, state and local government web resources and services.